Regional Weather Roundup
Issued by NWS

Home | Current Version | Previous Version | Graphics & Text | Print | Product List | Glossary On
Versions: 1 2 3 4 5 6 7 8 9 10 11 12 13 14 15 16 17 18 19 20 21 22 23 24 25 26 27
000
ASUS45 KTFX 270410
RWRMT
MONTANA REGIONAL WEATHER ROUNDUP
NATIONAL WEATHER SERVICE GREAT FALLS MT
1000 PM MDT MON SEP 26 2016

NOTE: "FAIR" INDICATES FEW OR NO CLOUDS BELOW 12000 FEET WITH NO
SIGNIFICANT WEATHER AND/OR OBSTRUCTIONS TO VISIBILITY.

MTZ001>007-043-270500-
WEST OF THE DIVIDE

CITY           SKY/WX    TMP DP  RH WIND       PRES   REMARKS
KALISPELL      CLEAR     49  44  83 N5        30.11F
MISSOULA       CLEAR     57  46  66 N5        30.16R
BUTTE          CLEAR     48  40  73 SE7       30.29S
MULLAN PASS    CLEAR     60  40  47 S5        30.26F
ANACONDA         N/A     54  37  54 S6        30.25S
DEER LODGE       N/A     50  39  66 CALM      30.26S
EUREKA           N/A     63  46  55 SE7       30.07F
HAMILTON         N/A     57  48  72 CALM      30.16F
LIBBY            N/A     55  50  82 CALM      30.07S
RONAN            N/A     50  43  77 CALM      30.15F
$$

MTZ008-052>055-270500-
SOUTHWEST MONTANA

CITY           SKY/WX    TMP DP  RH WIND       PRES   REMARKS
BOZEMAN        CLEAR     49  40  71 E5        30.23S
DILLON         CLEAR     52  42  69 SW9       30.26S
W YELLOWSTONE    N/A     52  39  62 S7        30.39S
ENNIS          CLEAR     61  34  36 SE9       30.31F
THREE FORKS      N/A     51  10  19 CALM      30.18F
TWIN BRIDGES     N/A     49  40  71 E2        30.21
$$

MTZ009-010-012-014-046-048-049-054-270500-
EAST SLOPES AND CENTRAL MONTANA

CITY           SKY/WX    TMP DP  RH WIND       PRES   REMARKS
CUT BANK       CLEAR     63  40  42 W15       30.06F
GREAT FALLS    CLEAR     59  40  49 S9        30.09F
MALMSTROM AFB  CLEAR     61  41  47 S14       30.09S
HELENA         CLEAR     59  41  51 W3        30.17S
CHOTEAU          N/A     61  39  44 W6        30.12F
$$

MTZ011-013-016-021-045-047-050-051-270500-
NORTH CENTRAL MONTANA

CITY           SKY/WX    TMP DP  RH WIND       PRES   REMARKS
HAVRE          CLEAR     57  47  69 SW13      30.00F
LEWISTOWN      CLEAR     53  43  68 VRB3      30.14S
N BAR RANCH      N/A     52  45  76 CALM      30.17F
CHINOOK          N/A     55  48  76 E6        30.01S
$$

MTZ017>020-022>027-061-062-270500-
NORTHEAST MONTANA

CITY           SKY/WX    TMP DP  RH WIND       PRES   REMARKS
GLASGOW        CLEAR     51  44  77 S8        30.06F
JORDAN           N/A     51  46  83 E3        30.09F
SIDNEY         CLEAR     50  42  74 SW5       30.08F
WOLF POINT     CLEAR     50  45  83 CALM      30.08S
POPLAR           N/A     54  45  71 CALM      30.08F
SCOBEY           N/A     46  34  63 CALM      30.06F
$$

MTZ028>42-056>058-270500-
SOUTHCENTRAL AND SOUTHEAST MONTANA

CITY           SKY/WX    TMP DP  RH WIND       PRES   REMARKS
BAKER          PTCLDY    49  43  80 CALM      30.14F
BILLINGS       CLEAR     64  45  49 W18       30.14F
LIVINGSTON     CLEAR     53  39  59 NW12      30.22S
MILES CITY     CLEAR     55  47  74 SE6       30.11F
BIG TIMBER     CLEAR     59  36  41 NW6G15    30.22S
FORSYTH          N/A     61  46  59 CALM      30.10F
LAUREL           N/A     63  44  49 SW9       30.13F
ROUNDUP          N/A     61  45  55 S8        30.03S
$$

REGIONAL REPORTS...DAKOTAS

CITY           SKY/WX    TMP DP  RH WIND       PRES   REMARKS
WILLISTON      CLEAR     46  40  79 N3        30.08S
MINOT          CLEAR     48  39  71 W7        30.04F
DICKINSON      CLOUDY    43  37  79 SW5       30.10S
CROSBY           N/A     43  43 100 S5        30.09S
WATFORD CITY     N/A     46  41  81 CALM      30.08F
BISMARCK       CLEAR     49  39  68 NW5       30.07F
GRAND FORKS    CLEAR     44  38  79 W9        29.94S
FARGO          CLEAR     48  33  56 W8        29.94S
BUFFALO SD       N/A     51  42  71 W5        30.09F
RAPID CITY     CLEAR     47  40  76 NW6       30.19F
$$

REGIONAL REPORTS...WYOMING/IDAHO/WASHINGTON

CITY           SKY/WX    TMP DP  RH WIND       PRES   REMARKS
GILLETTE       CLOUDY    49  46  90 S5        30.22F
SHERIDAN       CLOUDY    47  44  90 CALM      30.19F
BUFFALO WY     CLOUDY    53  44  71 CALM      30.26F
CODY           CLEAR     54  46  76 S7        30.28F
YELLOWSTONE LA   N/A     38  37  97 CALM      30.47S
IDAHO FALLS    CLEAR     49  44  83 CALM      30.29F
SALMON         CLEAR     52  45  76 CALM      30.21R
BOISE          CLEAR     69  41  36 SE8       30.13F
SPOKANE        CLEAR     65  42  43 CALM      30.04S
$$

REGIONAL REPORTS...ALBERTA

CITY           SKY/WX    TMP DP  RH WIND       PRES   REMARKS
EDMONTON       PTCLDY    61  41  48 S8        29.77F
CALGARY        MOCLDY    64  36  34 SW5       29.92F
LETHBRIDGE     PTCLDY    57  43  58 SW17      29.98F
MEDICINE HAT   CLEAR     52  45  76 SW5       29.93F
WATERTON GATE    N/A     66  39  37 SW20G29     N/A
MILK RIVER       N/A     50  39  66 SE1         N/A
ONEFOUR          N/A     59  39  47 W10         N/A
$$

REGIONAL REPORTS...SASKATCHEWAN

CITY           SKY/WX    TMP DP  RH WIND       PRES   REMARKS
SWIFT CURRENT  CLEAR     48  41  76 S9        30.00F
REGINA         CLEAR     45  39  81 SE7       30.05F
SASKATOON      CLEAR     50  39  66 SE6       30.00F
CYPRESS HILLS    N/A     54  39  58 S6          N/A
VAL MARIE        N/A     43  39  87 CALM        N/A
ROCKGLEN         N/A     50  43  76 SW6         N/A
ASSINIBOIA       N/A     52  43  71 S7          N/A
$$




USA.gov is the U.S. government's official web portal to all federal, state and local government web resources and services.